Home > Weather > Cali > Past weeks

Flag for Colombia Weather for the Past 2 Weeks in Cali, Colombia

Now
82 °F

Scattered clouds.


Feels Like: 85 °F
Forecast: 71 / 86 °F
Wind: 3 mph from North

Location: Cali / Alfonso Bonillaaragon

Current Time: Feb 10, 2016 at 10:47:35 AM

Latest Report: Feb 10, 2016 at 10:00 AM


Visibility: N/A

Pressure: 30.04 "Hg (26.95 "Hg at 955m altitude)

Humidity: 58%

Dew point: 66 °F

Location of CaliLocation

Historic Weather in Cali — Graph

°F

Cali Temperature Yesterday

Maximum temperature yesterday: 90 °F (at 1:00 PM)
Minimum temperature yesterday: 70 °F (at 6:00 AM)
Average temperature yesterday: 79 °F

High & Low Weather Summary for the Past Weeks

 TemperatureHumidityPressure
High93 °F (Feb 6, 3:00 PM)100% (Jan 30, 4:00 AM)30.07 "Hg (Jan 30, 4:00 AM)
Low64 °F (Feb 6, 3:00 AM)36% (Feb 6, 4:00 PM)29.77 "Hg (Feb 7, 4:00 PM)
Average77 °F71%29.95 "Hg
* Reported Jan 26 9:00 AM — Feb 10 9:00 AM, Cali, Weather by CustomWeather, © 2016

Note: Actual official high and low records may vary slightly from our data, if they occured in-between our weather recording intervals... More about our weather records

Advertising

Cali Weather History for the Previous 24 Hours

 ConditionsComfort  
Time TempWeatherWind HumidityBarometerVisibility
9:00 AM
Wed, Feb 10
81 °FScattered clouds.3 mph66%30.05 "HgN/A
8:00 AM75 °FScattered clouds.3 mph74%30.04 "HgN/A
7:00 AM70 °FPartly sunny.3 mph88%30.01 "HgN/A
6:00 AM70 °FPassing clouds.3 mph88%29.99 "HgN/A
5:00 AM70 °FPassing clouds.3 mph88%29.95 "HgN/A
4:00 AM72 °FPassing clouds.5 mph83%29.95 "HgN/A
3:00 AM70 °FPassing clouds.5 mph88%29.96 "HgN/A
2:00 AM68 °FPassing clouds.5 mph94%29.96 "HgN/A
1:00 AM70 °FPassing clouds.3 mph88%29.98 "HgN/A
12:00 AM72 °FPassing clouds.3 mph83%29.99 "HgN/A
11:00 PM
Tue, Feb 9
72 °FPassing clouds.7 mph83%29.99 "HgN/A
10:00 PM73 °FPassing clouds.7 mph78%29.99 "HgN/A
9:00 PM75 °FPassing clouds.9 mph74%29.95 "HgN/A
8:00 PM77 °FPassing clouds.7 mph69%29.92 "HgN/A
7:00 PM81 °FPassing clouds.9 mph62%29.90 "HgN/A
6:00 PM84 °FPassing clouds.9 mph55%29.88 "HgN/A
5:00 PM88 °FPassing clouds.12 mph49%29.86 "HgN/A
4:00 PM90 °FScattered clouds.9 mph46%29.87 "HgN/A
3:00 PM88 °FPartly sunny.9 mph49%29.89 "HgN/A
2:00 PM90 °FPartly sunny.16 mph46%29.92 "HgN/A
1:00 PM90 °FScattered clouds.3 mph46%29.95 "HgN/A
12:00 PM84 °FScattered clouds.5 mph58%29.99 "HgN/A
11:00 AM82 °FPartly sunny.7 mph62%30.02 "HgN/A
10:00 AM81 °FPartly sunny.3 mph66%30.03 "HgN/A
Weather by CustomWeather, © 2016

See weather overviewHow to use our weather pages